THOR ABLESTAR DEB, 224

Orbit data source: Space-Track

THOR ABLESTAR DEB, 224 is space debris in LEO originally from a launch on Thu, 29 Jun 1961 UTC launched from the Air Force Eastern Test Range (AFETR). Debris objects in space refer to the collection of defunct objects orbiting the Earth. Examples of debris include non-operational satellites, rocket bodies, and fragments generated from explosions, collisions, or faulty payload assembly.

Loading next visibility...
Identifier
224, 1961-015BL
Orbit
LEO
Country
Flag of USUS
Related business
Manufacturer
Unknown
Mission
Spacecraft
Bus & Motor
Unknown
Mass
Unknown
Launch date (UTC)
1961-06-29 (64 years ago)
Launch vehicle
Unknown
Launch site
Air Force Eastern Test Range (AFETR)
Object type
Payload
Rocket body
Debris
Shape & HBR
Unknown shape, 0.2 m
Radar Cross Section
Medium (>0.1 m² and <1 m²)

Expand to show TLE details & history
Last TLE update: 22 hours ago

TLE from 22 hours ago
0 THOR ABLESTAR DEB
1 00224U 61015BL  25305.62416731  .00000710  00000-0  42554-3 0  9997
2 00224  66.7375   9.6860 0066746 196.9619 239.6026 14.11674410280392
Epoch: 2025-11-01T14:58Z
TLE epoch observation values (Epoch: 2025-11-01T14:58:48.055Z)
Latitude
63.11966°
Longitude
161.35998°
Altitude
888.315 km
Speed
7.402 km/s
True Right ascension
04h 28m 50s
True Declination
62° 58' 60"
Sunlit
Object was in full shadow at epoch
Visualization orbit readout
Latitude
Unknown
Longitude
Unknown
Altitude
Unknown
Speed
Unknown
Apparent Right ascension
Unknown
Apparent Declination
Unknown
Sunlit
N/A
Visualization observer readout
Local Sidereal Time
08:28:05
Azimuth
Unknown
Elevation
Unknown
Doppler factor
Unknown
Orbital elements
Apogee altitude
900.291 km
Perigee altitude
803.774 km
Semi-major axis
7,230.169 km
Eccentricity
0.00667
Inclination
66.7375°
RAAN
9.686°
Arg. of periapsis
196.9619°
True anomaly
238.94567°
Mean anomaly
239.6026°
Eccentric anomaly
239.27386°
Mean motion
3.53037 °/min
Orbital period
101.97 mins
BSTAR
0.00042554
Loading maneuver chart data...
Computing Atmospheric mass density...

Documentation

Showing up to 5 results
|